GW4053 Weather Reports


time (UTC)temp
C
wind
direction
speed
KPH
gust
KPH
rain 1hr
cm
rain 24hr
cm
rain mn
cm
humidity
%
barometer
mb
20260505041421 13 286 4.8 9.7 0.00 0.00 0.00 64 1016.9
20260505040421 13 278 4.8 6.4 0.00 0.00 0.00 64 1016.9
20260505035421 13 279 4.8 9.7 0.00 0.00 0.00 64 1016.9
20260505034421 13 258 3.2 6.4 0.00 0.00 0.00 63 1016.7
20260505033421 13 257 3.2 8.0 0.00 0.00 0.00 63 1016.9
20260505032421 13 283 4.8 9.7 0.00 0.00 0.00 62 1017.0
20260505031422 13 281 3.2 8.0 0.00 0.00 0.00 61 1017.0
20260505030421 13 270 3.2 6.4 0.00 0.00 0.00 61 1017.0
20260505025421 13 254 3.2 6.4 0.00 0.00 0.00 62 1017.2
20260505024322 13 270 3.2 6.4 0.00 0.00 0.00 61 1017.1
20260505023321 13 270 3.2 6.4 0.00 0.00 0.00 61 1017.3
20260505022322 13 270 3.2 9.7 0.00 0.00 0.00 61 1017.5
20260505021322 13 262 3.2 6.4 0.00 0.00 0.00 62 1017.4
20260505020321 14 270 3.2 9.7 0.00 0.00 0.00 62 1017.6
20260505015321 13 270 3.2 6.4 0.00 0.00 0.00 61 1017.6
20260505014321 13 270 3.2 6.4 0.00 0.00 0.00 60 1017.8
20260505013321 13 270 3.2 8.0 0.00 0.00 0.00 61 1017.9
20260505012321 13 279 3.2 8.0 0.00 0.00 0.00 60 1018.0
20260505011321 14 270 3.2 8.0 0.00 0.00 0.00 59 1018.1
20260505010321 14 270 3.2 6.4 0.00 0.00 0.00 60 1018.0
20260505005221 14 270 3.2 6.4 0.00 0.00 0.00 60 1018.1
20260505004221 14 284 3.2 9.7 0.00 0.00 0.00 60 1018.1
20260505003222 14 287 3.2 8.0 0.00 0.00 0.00 59 1018.4
20260505002221 14 279 3.2 6.4 0.00 0.00 0.00 60 1018.6
20260505001222 14 282 6.4 8.0 0.00 0.00 0.00 59 1018.5
20260505000221 14 270 3.2 6.4 0.00 0.00 0.00 58 1018.6
20260504235221 14 270 3.2 6.4 0.00 0.00 0.00 58 1018.6
20260504234222 15 270 3.2 6.4 0.00 0.00 0.00 57 1018.7
20260504233221 15 270 3.2 8.0 0.00 0.00 0.00 56 1018.7
20260504232221 15 270 3.2 6.4 0.00 0.00 0.00 57 1019.0
20260504231221 15 270 3.2 8.0 0.00 0.00 0.00 58 1019.1
20260504230221 15 270 3.2 6.4 0.00 0.00 0.00 57 1019.0
20260504225121 15 281 3.2 6.4 0.00 0.00 0.00 57 1019.1
20260504224121 15 270 3.2 8.0 0.00 0.00 0.00 57 1019.2
20260504223121 15 270 3.2 4.8 0.00 0.00 0.00 57 1019.2
20260504222121 15 270 3.2 6.4 0.00 0.00 0.00 56 1019.3
20260504221121 16 270 3.2 6.4 0.00 0.00 0.00 55 1019.3
20260504220121 16 280 3.2 9.7 0.00 0.00 0.00 55 1019.3
20260504215121 16 270 3.2 8.0 0.00 0.00 0.00 54 1019.1
20260504214122 16 280 3.2 6.4 0.00 0.00 0.00 54 1019.2
20260504213121 16 270 3.2 6.4 0.00 0.00 0.00 54 1019.2
20260504212121 16 270 3.2 6.4 0.00 0.00 0.00 54 1019.1
20260504211121 16 288 3.2 6.4 0.00 0.00 0.00 55 1019.3
20260504210021 16 294 4.8 9.7 0.00 0.00 0.00 54 1019.2
20260504205022 16 285 4.8 9.7 0.00 0.00 0.00 54 1019.1
20260504204021 16 292 4.8 8.0 0.00 0.00 0.00 53 1019.1
20260504203021 17 281 3.2 8.0 0.00 0.00 0.00 53 1019.2
20260504202021 17 283 3.2 6.4 0.00 0.00 0.00 53 1019.0
20260504201021 17 292 3.2 8.0 0.00 0.00 0.00 52 1019.0
20260504200021 17 302 4.8 6.4 0.00 0.00 0.00 52 1019.0
20260504195021 17 299 3.2 6.4 0.00 0.00 0.00 51 1018.8
20260504194022 17 302 4.8 9.7 0.00 0.00 0.00 52 1018.8
20260504193021 17 307 6.4 9.7 0.00 0.00 0.00 51 1018.9
20260504191921 18 297 6.4 9.7 0.00 0.00 0.00 51 1018.7
20260504190921 18 295 4.8 8.0 0.00 0.00 0.00 51 1018.6
20260504185921 18 300 3.2 6.4 0.00 0.00 0.00 51 1018.4
20260504184921 18 302 4.8 8.0 0.00 0.00 0.00 50 1018.5
20260504183921 18 293 4.8 9.7 0.00 0.00 0.00 50 1018.3
20260504182921 18 292 3.2 8.0 0.00 0.00 0.00 49 1018.3
20260504181921 18 301 3.2 6.4 0.00 0.00 0.00 49 1018.1
20260504180921 18 309 3.2 8.0 0.00 0.00 0.00 48 1018.3
20260504175921 18 305 3.2 8.0 0.00 0.00 0.00 49 1018.1
20260504174921 18 315 3.2 8.0 0.00 0.00 0.00 49 1018.1
20260504173921 18 307 6.4 14.5 0.00 0.00 0.00 50 1018.0
20260504172821 18 309 9.7 16.1 0.00 0.00 0.00 50 1018.0
20260504171822 19 309 9.7 19.3 0.00 0.00 0.00 49 1017.8
20260504170821 19 308 8.0 14.5 0.00 0.00 0.00 50 1017.8
20260504150721 21 284 11.3 19.3 0.00 0.00 0.00 47 1017.8
20260504140721 22 270 11.3 25.7 0.00 0.00 0.00 45 1017.9
20260504130621 22 351 6.4 16.1 0.00 0.00 0.00 41 1018.4
20260504110522 20 303 3.2 9.7 0.00 0.00 0.00 49 1019.5
20260504100421 18 315 3.2 4.8 0.00 0.00 0.00 59 1020.2
20260504081322 15 18 3.2 9.7 0.00 0.00 0.00 67 1021.2
20260504080321 15 15 3.2 6.4 0.00 0.00 0.00 67 1021.2
20260504070322 13 347 3.2 6.4 0.00 0.00 0.00 69 1021.2
20260504060221 12 312 3.2 6.4 0.00 0.00 0.00 68 1021.1
20260504050121 12 270 3.2 6.4 0.00 0.00 0.00 68 1020.8